Weather History for Ellensburg, WA

Change the Weather History Date:

Thursday, February 21, 2013

  Actual Average (KYKM) Record (KYKM)
Temperature  
Mean Temperature 34 °F 37 °F  
Max Temperature 48 °F 48 °F 68 °F (1988)
Min Temperature 21 °F 26 °F 9 °F (1993)
Degree Days  
Heating Degree Days 30 28  
Month to date heating degree days 622  
Since 1 July heating degree days 4340  
Cooling Degree Days 0 0  
Month to date cooling degree days 0  
Year to date cooling degree days 0  
Moisture  
Dew Point 26 °F    
Average Humidity 73    
Maximum Humidity 85    
Minimum Humidity 46    
Precipitation  
Precipitation 0.00 in 0.02 in 0.42 in (1956)
Month to date precipitation 0.59  
Year to date precipitation 1.73  
Snow  
Snow 0.00 in 0.10 in 4.60 in (1956)
Month to date snowfall 2.1  
Year to date snowfall 7.4  
Since 1 July snowfall 20.4  
Snow Depth -    
Sea Level Pressure  
Sea Level Pressure 30.01 in    
Wind  
Wind Speed 5 mph (NW)    
Max Wind Speed 14 mph    
Max Gust Speed -    
Visibility 10 miles    
Events Rain    
T = Trace of Precipitation, MM = Missing Value Source: NWS Daily Summary

Daily Weather History Graph

Daily Weather History Graph

Search for Another Location

Airport:

Trip Planner

Search our weather history database for the weather conditions in past years. The results will help you decide how hot, cold, wet, or windy it might be!

Date:

Astronomy

Feb. 21, 2013 Rise Set
Actual Time 6:55 AM PST 5:36 PM PST
Civil Twilight 6:24 AM PST 6:07 PM PST
Nautical Twilight 5:49 AM PST 6:42 PM PST
Astronomical Twilight 5:14 AM PST 7:17 PM PST
Moon 1:45 PM PST (2/21) 4:14 AM PST (2/21)
Length of Visible Light 11h 42m
Length of Day
10h 40m
Waxing Gibbous, 84% of the Moon is Illuminated
Feb 21
Waxing Gibbous
Feb 25
Full
Mar 4
Last Quarter
Mar 11
New
Mar 19
First Quarter

Hourly Weather History & Observations

Time (PST) Temp. Windchill Dew Point Humidity Pressure Visibility Wind Dir Wind Speed Gust Speed Precip Events Conditions
12:53 AM 26.1 °F 21.9 °F 19.0 °F 75% 30.00 in 10.0 mi SE 3.5 mph - N/A   Clear
1:53 AM 25.0 °F 18.1 °F 19.9 °F 81% 30.01 in 10.0 mi ENE 5.8 mph - N/A   Clear
2:53 AM 24.1 °F 17.0 °F 19.0 °F 81% 30.02 in 10.0 mi NE 5.8 mph - N/A   Clear
3:53 AM 24.1 °F - 18.0 °F 77% 30.02 in 10.0 mi Calm Calm - N/A   Clear
4:53 AM 21.0 °F 14.6 °F 16.0 °F 81% 30.01 in 10.0 mi East 4.6 mph - N/A   Clear
5:53 AM 26.1 °F 20.5 °F 21.0 °F 81% 30.02 in 10.0 mi ENE 4.6 mph - N/A   Overcast
6:53 AM 28.0 °F 24.2 °F 23.0 °F 81% 30.02 in 10.0 mi SW 3.5 mph - N/A   Overcast
7:53 AM 28.0 °F - 23.0 °F 81% 30.03 in 10.0 mi Calm Calm - N/A   Clear
8:53 AM 30.0 °F - 24.1 °F 79% 30.04 in 10.0 mi Calm Calm - N/A   Clear
9:53 AM 33.1 °F - 26.1 °F 75% 30.03 in 10.0 mi Calm Calm - N/A   Partly Cloudy
10:53 AM 39.0 °F 36.8 °F 27.0 °F 62% 30.03 in 10.0 mi Variable 3.5 mph - N/A   Overcast
11:53 AM 45.0 °F 39.3 °F 28.0 °F 52% 30.02 in 10.0 mi NW 11.5 mph - N/A   Mostly Cloudy
12:53 PM 48.0 °F - 28.0 °F 46% 29.99 in 10.0 mi Variable 6.9 mph - N/A   Overcast
1:53 PM 46.0 °F 41.0 °F 26.1 °F 46% 29.99 in 10.0 mi WNW 10.4 mph - N/A   Overcast
2:53 PM 45.0 °F 38.5 °F 28.0 °F 52% 29.99 in 10.0 mi NW 13.8 mph - N/A   Overcast
3:53 PM 41.0 °F 33.9 °F 30.0 °F 65% 30.00 in 10.0 mi NW 12.7 mph - N/A   Overcast
4:53 PM 39.0 °F 31.8 °F 30.9 °F 73% 30.01 in 10.0 mi NW 11.5 mph - 0.00 in Rain Light Rain
5:53 PM 35.1 °F 30.1 °F 30.0 °F 82% 30.01 in 10.0 mi NW 5.8 mph - 0.00 in   Overcast
6:53 PM 35.1 °F 32.2 °F 30.9 °F 85% 30.01 in 10.0 mi WSW 3.5 mph - 0.00 in   Overcast
7:53 PM 36.0 °F 33.3 °F 30.9 °F 82% 30.01 in 10.0 mi West 3.5 mph - 0.00 in Rain Light Rain
8:53 PM 37.0 °F 31.6 °F 30.9 °F 79% 30.01 in 10.0 mi NW 6.9 mph - 0.00 in   Mostly Cloudy
9:53 PM 34.0 °F 29.8 °F 30.0 °F 85% 30.02 in 8.0 mi West 4.6 mph - N/A   Mostly Cloudy
11:53 PM 36.0 °F 29.6 °F 30.0 °F 79% 29.99 in 10.0 mi NW 8.1 mph - N/A   Clear